KC0AFB Weather Reports


Display with metric or nautical units.
time (UTC)temp
F
wind
direction
speed
MPH
gust
MPH
rain 1hr
in
rain 24hr
in
rain mn
in
humidity
%
barometer
mb
20260904232225 85 95 11.0 15.0 0.00 0.00 0.00 56 1011.8
20260904231720 86 69 11.0 15.0 0.00 0.00 0.00 56 1011.7
20260904231215 86 123 9.0 10.0 0.00 0.00 0.00 56 1011.8
20260904230715 86 95 12.0 15.0 0.00 0.00 0.00 55 1011.7
20260904230209 86 98 9.0 11.0 0.00 0.00 0.00 55 1011.6
20260904225708 86 78 15.0 17.0 0.00 0.00 0.00 54 1011.6
20260904225202 86 88 12.0 18.0 0.00 0.00 0.00 54 1011.6
20260904224656 86 113 11.0 13.0 0.00 0.00 0.00 54 1011.7
20260904224151 86 104 9.0 10.0 0.00 0.00 0.00 54 1011.8
20260904223651 86 55 12.0 15.0 0.00 0.00 0.00 53 1011.8
20260904223146 87 57 9.0 13.0 0.00 0.00 0.00 52 1011.7
20260904222642 87 103 12.0 14.0 0.00 0.00 0.00 51 1012.0
20260904222137 87 85 15.0 17.0 0.00 0.00 0.00 50 1011.9
20260904221636 87 92 8.0 8.0 0.00 0.00 0.00 50 1011.7
20260904221132 87 106 14.0 17.0 0.00 0.00 0.00 48 1011.9
20260904220626 87 115 10.0 11.0 0.00 0.00 0.00 48 1012.2
20260904220122 88 127 11.0 13.0 0.00 0.00 0.00 46 1012.1
20260904215622 88 120 7.0 10.0 0.00 0.00 0.00 47 1012.1
20260904215118 88 127 8.0 9.0 0.00 0.00 0.00 45 1012.2
20260904214618 88 122 13.0 17.0 0.00 0.00 0.00 44 1012.0
20260904214114 89 90 12.0 14.0 0.00 0.00 0.00 44 1012.0
20260904213611 89 88 9.0 13.0 0.00 0.00 0.00 44 1012.0
20260904213108 88 102 12.0 17.0 0.00 0.00 0.00 45 1011.9
20260904212608 88 122 14.0 15.0 0.00 0.00 0.00 45 1012.0
20260904212103 88 136 16.0 18.0 0.00 0.00 0.00 44 1011.9
20260904211602 88 86 13.0 16.0 0.00 0.00 0.00 45 1011.9
20260904211058 88 147 9.0 14.0 0.00 0.00 0.00 46 1011.9
20260904210557 88 111 10.0 11.0 0.00 0.00 0.00 47 1012.1
20260904210053 88 119 10.0 13.0 0.00 0.00 0.00 47 1012.1
20260904205548 88 51 9.0 13.0 0.00 0.00 0.00 47 1012.2
20260904205045 88 125 16.0 18.0 0.00 0.00 0.00 46 1012.1
20260904204541 87 133 10.0 11.0 0.00 0.00 0.00 47 1012.2
20260904204036 88 122 10.0 11.0 0.00 0.00 0.00 47 1012.6
20260904203533 88 136 9.0 10.0 0.00 0.00 0.00 47 1012.5
20260904203029 88 108 9.0 11.0 0.00 0.00 0.00 47 1012.4
20260904202524 88 136 12.0 16.0 0.00 0.00 0.00 45 1012.4
20260904202021 88 96 11.0 14.0 0.00 0.00 0.00 44 1012.4
20260904201516 88 135 7.0 10.0 0.00 0.00 0.00 46 1012.6
20260904201011 88 85 10.0 11.0 0.00 0.00 0.00 44 1012.4
20260904200509 88 127 11.0 11.0 0.00 0.00 0.00 43 1012.5
20260904200005 88 93 5.0 6.0 0.00 0.00 0.00 43 1012.3
20260904195503 88 114 10.0 14.0 0.00 0.00 0.00 43 1012.2
20260904195002 88 139 11.0 13.0 0.00 0.00 0.00 41 1012.3
20260904194457 88 123 15.0 21.0 0.00 0.00 0.00 43 1012.2
20260904193952 87 90 9.0 10.0 0.00 0.00 0.00 46 1012.3
20260904193447 87 99 6.0 8.0 0.00 0.00 0.00 49 1012.5
20260904192942 86 106 8.0 11.0 0.00 0.00 0.00 51 1013.0
20260904192437 86 105 10.0 10.0 0.00 0.00 0.00 50 1012.6
20260904191934 86 122 13.0 15.0 0.00 0.00 0.00 50 1012.7
20260904191430 86 88 14.0 17.0 0.00 0.00 0.00 50 1013.0
20260904190926 86 72 12.0 14.0 0.00 0.00 0.00 50 1012.9
20260904190421 86 122 9.0 11.0 0.00 0.00 0.00 51 1013.2
20260904185918 86 134 8.0 10.0 0.00 0.00 0.00 52 1013.3
20260904185413 85 143 11.0 13.0 0.00 0.00 0.00 53 1013.5
20260904184913 86 140 5.0 6.0 0.00 0.00 0.00 53 1013.6
20260904184408 86 118 9.0 13.0 0.00 0.00 0.00 51 1013.4
20260904183903 85 153 12.0 14.0 0.00 0.00 0.00 52 1013.8
20260904183358 84 82 7.0 9.0 0.00 0.00 0.00 53 1013.9
20260904182854 85 114 11.0 11.0 0.00 0.00 0.00 53 1013.7
20260904182348 84 144 8.0 11.0 0.00 0.00 0.00 53 1013.7
20260904181843 84 134 8.0 9.0 0.00 0.00 0.00 55 1013.8
20260904181338 84 89 9.0 10.0 0.00 0.00 0.00 55 1013.9
20260904180833 84 135 9.0 13.0 0.00 0.00 0.00 56 1014.0
20260904180329 83 106 9.0 10.0 0.00 0.00 0.00 56 1013.9
20260904175828 83 126 11.0 13.0 0.00 0.00 0.00 57 1014.1
20260904175327 82 88 10.0 11.0 0.00 0.00 0.00 60 1014.4
20260904174827 82 154 9.0 10.0 0.00 0.00 0.00 59 1014.2
20260904174323 81 134 8.0 11.0 0.00 0.00 0.00 61 1014.4
20260904173819 81 124 9.0 10.0 0.00 0.00 0.00 63 1014.3
20260904173314 80 54 4.0 5.0 0.00 0.00 0.00 66 1014.2
20260904172810 80 90 5.0 6.0 0.00 0.00 0.00 64 1014.4
20260904172309 81 77 8.0 9.0 0.00 0.00 0.00 64 1014.5
20260904171804 80 92 7.0 8.0 0.00 0.00 0.00 66 1014.5
20260904171259 79 103 8.0 10.0 0.00 0.00 0.00 65 1014.4
20260904170755 79 75 7.0 9.0 0.00 0.00 0.00 67 1014.4
20260904170252 79 104 12.0 14.0 0.00 0.00 0.00 67 1014.1
20260904165750 78 97 6.0 9.0 0.00 0.00 0.00 70 1014.3
20260904165250 78 87 7.0 8.0 0.00 0.00 0.00 71 1014.2
20260904164744 78 100 7.0 8.0 0.00 0.00 0.00 72 1014.1
20260904164240 78 119 6.0 8.0 0.00 0.00 0.00 72 1014.3
20260904163736 77 118 8.0 9.0 0.00 0.00 0.00 72 1014.1
20260904163231 76 96 6.0 7.0 0.00 0.00 0.00 75 1014.1
20260904162730 76 85 11.0 13.0 0.00 0.00 0.00 74 1013.8
20260904162225 76 131 6.0 7.0 0.00 0.00 0.00 75 1013.9
20260904161720 75 89 8.0 10.0 0.00 0.00 0.00 76 1013.8
20260904161216 75 49 7.0 8.0 0.00 0.00 0.00 77 1013.9
20260904160711 74 64 7.0 7.0 0.00 0.00 0.00 78 1013.9
20260904160206 74 60 9.0 9.0 0.00 0.00 0.00 79 1013.9
20260904155706 73 59 10.0 11.0 0.00 0.00 0.00 80 1013.9
20260904155206 73 85 7.0 8.0 0.00 0.00 0.00 81 1013.9
20260904154704 72 74 11.0 14.0 0.00 0.00 0.00 82 1013.9
20260904154200 72 72 7.0 8.0 0.00 0.00 0.00 83 1014.0
20260904153655 71 93 7.0 8.0 0.00 0.00 0.00 83 1013.9
20260904153150 71 94 6.0 7.0 0.00 0.00 0.00 84 1014.2
20260904152647 70 90 8.0 10.0 0.00 0.00 0.00 85 1014.1
20260904152141 70 97 5.0 6.0 0.00 0.00 0.00 86 1014.1
20260904151636 69 88 9.0 9.0 0.00 0.00 0.00 86 1014.1
20260904151135 69 124 7.0 9.0 0.00 0.00 0.00 86 1014.1
20260904150631 69 81 5.0 8.0 0.00 0.00 0.00 87 1014.1
20260904150126 68 86 5.0 6.0 0.00 0.00 0.00 88 1014.2
20260904145625 68 74 7.0 10.0 0.00 0.00 0.00 88 1014.4
20260904145120 67 98 4.0 7.0 0.00 0.00 0.00 89 1014.0
20260904144616 66 101 7.0 9.0 0.00 0.00 0.00 89 1014.3
20260904144111 66 73 9.0 11.0 0.00 0.00 0.00 89 1014.3
20260904143607 65 65 9.0 10.0 0.00 0.00 0.00 90 1014.1
20260904143103 64 68 8.0 9.0 0.00 0.00 0.00 90 1014.4
20260904142559 64 119 5.0 6.0 0.00 0.00 0.00 91 1014.3
20260904142054 63 91 5.0 6.0 0.00 0.00 0.00 92 1014.4
20260904141549 63 122 5.0 6.0 0.00 0.00 0.00 93 1014.4
20260904141045 63 108 6.0 7.0 0.00 0.00 0.00 93 1014.5
20260904140540 63 104 5.0 6.0 0.00 0.00 0.00 94 1014.3
20260904140034 62 111 5.0 7.0 0.00 0.00 0.00 94 1014.3
20260904135533 62 61 3.0 5.0 0.00 0.00 0.00 95 1014.2
20260904135030 62 59 5.0 6.0 0.00 0.00 0.00 95 1014.3
20260904134525 61 73 3.0 5.0 0.00 0.00 0.00 95 1014.4
20260904134019 61 94 4.0 5.0 0.00 0.00 0.00 95 1014.8
20260904133513 61 70 3.0 5.0 0.00 0.00 0.00 95 1014.5
20260904133010 60 68 4.0 5.0 0.00 0.00 0.00 95 1014.5
20260904132504 60 58 3.0 3.0 0.00 0.00 0.00 96 1014.4
20260904132004 60 55 3.0 3.0 0.00 0.00 0.00 96 1014.6
20260904131458 60 104 1.0 1.0 0.00 0.00 0.00 96 1014.6
20260904130954 60 103 3.0 3.0 0.00 0.00 0.00 96 1014.3
20260904130453 59 70 2.0 3.0 0.00 0.00 0.00 96 1014.3
20260904125948 59 81 2.0 2.0 0.00 0.00 0.00 96 1014.4
20260904125445 58 68 3.0 5.0 0.00 0.00 0.00 96 1014.3
20260904124944 58 68 3.0 3.0 0.00 0.00 0.00 96 1014.3
20260904124440 58 79 3.0 3.0 0.00 0.00 0.00 96 1014.4
20260904123936 57 80 2.0 3.0 0.00 0.00 0.00 95 1014.1
20260904123430 58 52 3.0 3.0 0.00 0.00 0.00 95 1014.1
20260904122926 58 57 3.0 3.0 0.00 0.00 0.00 95 1014.1
20260904122426 58 70 3.0 3.0 0.00 0.00 0.00 95 1014.2
20260904121920 58 55 5.0 6.0 0.00 0.00 0.00 95 1014.1
20260904121417 58 79 3.0 3.0 0.00 0.00 0.00 95 1014.0
20260904120913 58 60 5.0 5.0 0.00 0.00 0.00 95 1013.8
20260904120409 58 61 3.0 3.0 0.00 0.00 0.00 95 1014.2
20260904115903 58 73 5.0 6.0 0.00 0.00 0.00 95 1013.9
20260904115359 58 68 3.0 3.0 0.00 0.00 0.00 95 1013.9
20260904114853 58 56 5.0 6.0 0.00 0.00 0.00 95 1014.2
20260904114348 59 87 5.0 6.0 0.00 0.00 0.00 95 1014.2
20260904113843 59 62 4.0 5.0 0.00 0.00 0.00 95 1014.1
20260904113343 59 68 4.0 5.0 0.00 0.00 0.00 95 1013.9
20260904112837 59 82 5.0 6.0 0.00 0.00 0.00 95 1014.2
20260904112333 59 70 4.0 6.0 0.00 0.00 0.00 95 1014.1
20260904111828 59 86 3.0 6.0 0.00 0.00 0.00 95 1014.0
20260904111324 59 77 3.0 5.0 0.00 0.00 0.00 95 1014.2
20260904110820 59 109 3.0 5.0 0.00 0.00 0.00 95 1014.1
20260904110319 60 91 5.0 6.0 0.00 0.00 0.00 95 1014.2
20260904105814 59 99 4.0 6.0 0.00 0.00 0.00 95 1014.4
20260904105314 59 103 5.0 7.0 0.00 0.00 0.00 95 1014.4
20260904104809 59 108 4.0 5.0 0.00 0.00 0.00 95 1014.2
20260904104304 59 110 6.0 7.0 0.00 0.00 0.00 95 1014.3
20260904103802 59 105 4.0 5.0 0.00 0.00 0.00 94 1014.0
20260904103300 60 94 5.0 6.0 0.00 0.00 0.00 94 1014.3
20260904102756 60 130 6.0 7.0 0.00 0.00 0.00 94 1014.1
20260904102252 60 92 5.0 5.0 0.00 0.00 0.00 94 1013.9
20260904101748 60 95 6.0 7.0 0.00 0.00 0.00 94 1013.9
20260904101244 60 113 5.0 6.0 0.00 0.00 0.00 94 1014.1
20260904100739 60 111 5.0 6.0 0.00 0.00 0.00 94 1013.9
20260904100235 60 90 7.0 8.0 0.00 0.00 0.00 94 1013.8
20260904095735 60 100 6.0 8.0 0.00 0.00 0.00 94 1013.7
20260904095230 60 76 5.0 6.0 0.00 0.00 0.00 94 1013.9
20260904094725 60 89 5.0 6.0 0.00 0.00 0.00 94 1013.7
20260904094225 60 86 8.0 9.0 0.00 0.00 0.00 93 1013.6
20260904093721 61 83 5.0 7.0 0.00 0.00 0.00 93 1013.5
20260904093220 61 75 6.0 8.0 0.00 0.00 0.00 93 1013.2
20260904092716 61 91 6.0 7.0 0.00 0.00 0.00 93 1013.4
20260904092213 61 104 4.0 6.0 0.00 0.00 0.00 93 1013.2
20260904091708 61 78 7.0 8.0 0.00 0.00 0.00 93 1013.0
20260904091203 61 87 6.0 7.0 0.00 0.00 0.00 93 1013.1
20260904090659 61 74 7.0 9.0 0.00 0.00 0.00 93 1013.0
20260904090155 61 55 7.0 8.0 0.00 0.00 0.00 93 1012.9
20260904085650 61 73 8.0 9.0 0.00 0.00 0.00 93 1012.7
20260904085149 61 66 5.0 6.0 0.00 0.00 0.00 93 1012.6
20260904084644 61 90 7.0 7.0 0.00 0.00 0.00 93 1012.4
20260904084141 61 65 5.0 7.0 0.00 0.00 0.00 93 1012.9
20260904083637 61 75 5.0 7.0 0.00 0.00 0.00 93 1012.9
20260904083133 62 82 5.0 7.0 0.00 0.00 0.00 93 1012.6
20260904082627 62 56 5.0 6.0 0.00 0.00 0.00 93 1012.3
20260904082123 62 82 5.0 7.0 0.00 0.00 0.00 93 1012.2
20260904081618 62 49 5.0 8.0 0.00 0.00 0.00 93 1012.4
20260904081113 62 59 4.0 6.0 0.00 0.00 0.00 93 1012.5
20260904080609 62 54 4.0 5.0 0.00 0.00 0.00 93 1012.3
20260904080105 62 54 5.0 7.0 0.00 0.00 0.00 93 1012.6
20260904075556 62 59 3.0 3.0 0.00 0.00 0.00 93 1012.7
20260904075055 62 75 3.0 5.0 0.00 0.00 0.00 93 1012.7
20260904074555 62 62 2.0 2.0 0.00 0.00 0.00 93 1012.9
20260904074050 62 76 3.0 3.0 0.00 0.00 0.00 93 1013.0
20260904073550 62 66 3.0 3.0 0.00 0.00 0.00 93 1012.9
20260904073047 62 48 3.0 5.0 0.00 0.00 0.00 93 1012.9
20260904072542 62 55 3.0 3.0 0.00 0.00 0.00 92 1012.6
20260904072037 62 65 2.0 2.0 0.00 0.00 0.00 92 1012.6
20260904071532 62 82 3.0 3.0 0.00 0.00 0.00 92 1012.7
20260904071027 62 78 5.0 6.0 0.00 0.00 0.00 92 1012.7
20260904070526 62 131 5.0 6.0 0.00 0.00 0.00 92 1012.5
20260904070021 63 124 3.0 3.0 0.00 0.00 0.00 92 1012.5
20260904065516 63 97 3.0 3.0 0.00 0.00 0.00 92 1012.9
20260904065012 63 93 2.0 2.0 0.00 0.00 0.00 92 1012.6
20260904064508 63 104 2.0 2.0 0.00 0.00 0.00 92 1012.5
20260904064003 63 67 2.0 2.0 0.00 0.00 0.00 92 1012.5
20260904063459 63 89 2.0 2.0 0.00 0.00 0.00 92 1012.3
20260904062954 63 65 2.0 2.0 0.00 0.00 0.00 92 1012.3
20260904062450 64 78 3.0 3.0 0.00 0.00 0.00 91 1012.2
20260904061946 64 74 4.0 5.0 0.00 0.00 0.00 91 1012.4
20260904061442 64 78 5.0 6.0 0.00 0.00 0.00 91 1012.3
20260904060938 64 77 3.0 3.0 0.00 0.00 0.00 91 1012.1
20260904060434 64 82 4.0 6.0 0.00 0.00 0.00 91 1011.9
20260904055929 64 59 5.0 6.0 0.00 0.00 0.00 91 1012.3
20260904055424 64 56 5.0 6.0 0.00 0.00 0.00 91 1012.1
20260904054920 64 57 4.0 5.0 0.00 0.00 0.00 91 1012.2
20260904054410 64 75 5.0 6.0 0.00 0.00 0.00 91 1012.3
20260904053906 64 52 3.0 3.0 0.00 0.00 0.00 91 1012.3
20260904053404 64 56 3.0 3.0 0.00 0.00 0.00 91 1012.1
20260904052900 64 57 4.0 5.0 0.00 0.00 0.00 91 1012.3
20260904052356 64 55 3.0 3.0 0.00 0.00 0.00 91 1012.2
20260904051852 65 60 5.0 5.0 0.00 0.00 0.00 90 1012.2
20260904051348 65 57 4.0 5.0 0.00 0.00 0.00 90 1012.1
20260904050842 66 50 3.0 3.0 0.00 0.00 0.00 90 1012.5
20260904050339 66 55 3.0 3.0 0.00 0.00 0.00 89 1012.4
20260904045833 66 58 2.0 3.0 0.00 0.00 0.00 89 1012.1
20260904045328 66 73 3.0 3.0 0.00 0.00 0.00 89 1012.2
20260904044823 66 69 2.0 3.0 0.00 0.00 0.00 88 1012.2
20260904044319 66 73 3.0 5.0 0.00 0.00 0.00 88 1011.9
20260904043815 66 74 3.0 3.0 0.00 0.00 0.00 89 1012.3
20260904043311 66 63 3.0 3.0 0.00 0.00 0.00 89 1012.1
20260904042806 66 70 2.0 2.0 0.00 0.00 0.00 88 1011.9
20260904042306 66 70 2.0 2.0 0.00 0.00 0.00 88 1012.0
20260904041803 66 73 2.0 2.0 0.00 0.00 0.00 88 1012.2
20260904041259 66 66 3.0 3.0 0.00 0.00 0.00 88 1011.9
20260904040754 67 69 2.0 2.0 0.00 0.00 0.00 88 1011.9
20260904040250 67 64 2.0 2.0 0.00 0.00 0.00 87 1011.9
20260904035746 67 58 2.0 2.0 0.00 0.00 0.00 87 1012.0
20260904035241 68 60 2.0 2.0 0.00 0.00 0.00 86 1011.7
20260904034740 68 59 1.0 1.0 0.00 0.00 0.00 85 1011.5
20260904034236 68 37 3.0 3.0 0.00 0.00 0.00 85 1011.6
20260904033731 69 58 2.0 2.0 0.00 0.00 0.00 85 1011.6
20260904033228 69 53 2.0 2.0 0.00 0.00 0.00 85 1011.5
20260904032723 69 52 2.0 2.0 0.00 0.00 0.00 85 1011.3
20260904032222 68 17 2.0 2.0 0.00 0.00 0.00 86 1011.2
20260904031717 68 26 2.0 2.0 0.00 0.00 0.00 86 1011.3
20260904031213 69 30 2.0 2.0 0.00 0.00 0.00 84 1011.2
20260904030708 71 45 1.0 1.0 0.00 0.00 0.00 82 1011.3
20260904030203 70 45 3.0 5.0 0.00 0.00 0.00 83 1011.3
20260904025700 69 45 2.0 2.0 0.00 0.00 0.00 84 1011.2
20260904025154 70 60 3.0 3.0 0.00 0.00 0.00 83 1010.9
20260904024650 71 60 2.0 2.0 0.00 0.00 0.00 82 1010.9
20260904024145 70 46 3.0 3.0 0.00 0.00 0.00 83 1010.8
20260904023641 70 58 2.0 2.0 0.00 0.00 0.00 84 1010.9
20260904023137 70 56 3.0 3.0 0.00 0.00 0.00 83 1010.9
20260904022637 70 46 3.0 3.0 0.00 0.00 0.00 83 1010.8
20260904022134 70 52 2.0 2.0 0.00 0.00 0.00 84 1010.9
20260904021630 70 47 2.0 2.0 0.00 0.00 0.00 83 1010.7
20260904021125 69 35 2.0 2.0 0.00 0.00 0.00 85 1010.9
20260904020620 70 61 2.0 2.0 0.00 0.00 0.00 85 1010.8
20260904020109 70 79 2.0 2.0 0.00 0.00 0.00 84 1010.9
20260904015603 70 52 2.0 2.0 0.00 0.00 0.00 84 1010.8
20260904015102 71 70 2.0 2.0 0.00 0.00 0.00 83 1010.7
20260904014556 71 74 1.0 1.0 0.00 0.00 0.00 82 1010.5
20260904014052 71 60 1.0 1.0 0.00 0.00 0.00 82 1010.4
20260904013548 71 57 1.0 2.0 0.00 0.00 0.00 83 1010.5
20260904013044 71 60 1.0 1.0 0.00 0.00 0.00 83 1010.2
20260904012544 71 57 1.0 1.0 0.00 0.00 0.00 82 1010.2
20260904012038 72 63 2.0 2.0 0.00 0.00 0.00 81 1010.3
20260904011537 72 71 0.0 0.0 0.00 0.00 0.00 82 1010.1
20260904011033 73 72 0.0 0.0 0.00 0.00 0.00 81 1010.2
20260904010529 73 87 0.0 0.0 0.00 0.00 0.00 80 1010.0
20260904010025 74 87 0.0 0.0 0.00 0.00 0.00 79 1010.1
20260904005525 75 86 1.0 1.0 0.00 0.00 0.00 77 1009.9
20260904005021 76 98 0.0 0.0 0.00 0.00 0.00 76 1010.0
20260904004516 76 78 0.0 1.0 0.00 0.00 0.00 76 1009.7
20260904004016 77 103 1.0 1.0 0.00 0.00 0.00 74 1010.0
20260904003513 77 79 0.0 0.0 0.00 0.00 0.00 74 1009.8
20260904003008 78 152 1.0 1.0 0.00 0.00 0.00 71 1009.7
20260904002504 78 80 1.0 1.0 0.00 0.00 0.00 72 1010.0
20260904002003 78 101 0.0 0.0 0.00 0.00 0.00 70 1009.8
20260904001459 78 79 1.0 1.0 0.00 0.00 0.00 71 1009.8
20260904000959 79 115 0.0 0.0 0.00 0.00 0.00 70 1009.8
20260904000458 79 115 0.0 0.0 0.00 0.00 0.00 71 1009.8
20260903235954 80 121 0.0 0.0 0.00 0.00 0.00 68 1010.0
20260903235449 79 120 0.0 1.0 0.00 0.00 0.00 69 1009.9
20260903234943 79 181 1.0 1.0 0.00 0.00 0.00 69 1009.8
20260903234440 78 187 2.0 2.0 0.00 0.00 0.00 70 1009.9
20260903233936 78 141 3.0 3.0 0.00 0.00 0.00 71 1009.9
20260903233431 78 104 2.0 2.0 0.00 0.00 0.00 71 1009.8
20260903232926 78 115 0.0 1.0 0.00 0.00 0.00 70 1009.6